Tracking 18980 objects as of 22-Feb-2018
HD Live streaming from Space Station
objects crossing your sky now

FENGYUN 1C DEB

Track FENGYUN 1C DEB now!
10-day predictions


NORAD ID: 31319
Int'l Code: 1999-025BPX
Perigee: 862.5 km
Apogee: 1,115.9 km
Inclination: 98.8 °
Period: 104.7 minutes
Semi major axis: 7360 km
RCS: 0.0193 m2 (small)
Launch date: May 10, 1999
Source: People's Republic of China (PRC)
Launch site: Taiyaun Space Center, China (TSC)

Note: This is SATELLITE DEBRIS
aabbcc
Your satellite tracking list
Your tracking list is empty




NASA's NSSDC Master Catalog

Two Line Element Set (TLE):
1 31319U 99025BPX 18051.09343932 -.00000042  00000-0 -33530-5 0  9997
2 31319  98.8325 137.4318 0172088 139.9649 339.1990 13.74893071545481
Source of the keplerian elements: AFSPC